Location: Falniów
(50.3639°N, 19.9642°E)
Time: 16:59:14
(UTC+00:00)

Lacrosse 5 rocket - Pass Details

Date: 18 January 2026
Orbit: 401 x 481 km, 57.0° (Epoch: 16 February)

Event Time Altitude Azimuth Distance (km) Brightness Sun altitude
Exits shadow 05:21:38 15° 310° (NW) 1,422 2.8 -10.9°
Maximum altitude 05:24:38 47° 22° (NNE) 661 1.7 -10.5°
Drops below altitude 10° 05:28:18 10° 97° (E) 1,677 5.3 -9.9°
Sets 05:30:31 0° 104° (ESE) 2,550 6.9 -9.6°
